Location: Ash Swamp
(41.5170°N, 74.6157°W)
Time: 02:48:05
(UTC+00:00)

Cosmos 1190 Rocket - Pass Details

Date: 14 July 2020
Orbit: 756 x 781 km, 74.1° (Epoch: 14 August)

Event Time Altitude Azimuth Distance (km) Brightness Sun altitude
Exits shadow 07:07:23 41° 239° (WSW) 1,090 4.3 -20.8°
Maximum altitude 07:08:52 57° 292° (WNW) 898 4.2 -20.6°
Drops below altitude 10° 07:14:03 10° 12° (NNE) 2,315 7.5 -20.1°
Sets 07:16:29 0° 16° (NNE) 3,250 8.6 -19.9°
